Regional Weather Roundup
Issued by NWS Newport/Morehead, NC

Current Version | Previous Version | Text Only | Print | Product List | Glossary On
Versions: 1 2 3 4 5 6 7 8 9 10 11 12 13 14 15 16 17 18 19 20 21 22 23 24 25 26 27 28 29 30 31 32 33 34 35 36 37 38 39 40 41 42 43 44 45 46 47 48 49 50
000
ASUS42 KMHX 272222
RWRMHX
WEATHER ROUNDUP FOR EASTERN NORTH CAROLINA
NATIONAL WEATHER SERVICE NEWPORT/MOREHEAD CITY NC
500 PM EST TUE JAN 27 2015

NOTE: "FAIR" INDICATES FEW OR NO CLOUDS BELOW 12,000 FEET
WITH NO SIGNIFICANT WEATHER AND/OR OBSTRUCTIONS TO VISIBILITY

NCZ015>017-031-032-045>047-102-103-272300-
NORTH COAST

CITY           SKY/WX    TMP DP  RH WIND       PRES   REMARKS
EDENTON        CLOUDY    35  30  82 NW10G16   29.83R
ELIZABETH CITY CLOUDY    35  28  75 NW12      29.81R
KITTY HAWK     CLOUDY    35  30  82 NW7       29.77R
MANTEO         CLOUDY    36  28  75 NW6       29.79R

$$

NCZ045>047-081-094-103-104-272300-
CENTRAL COAST

CITY           SKY/WX    TMP DP  RH WIND       PRES   REMARKS
FRISCO         CLOUDY    34  31  88 NW10G18   29.79R
SWANQUARTER    NOT AVBL

$$

NCZ095-097-098-100-101-272300-
SOUTHERN COAST

CITY           SKY/WX    TMP DP  RH WIND       PRES   REMARKS
BEAUFORT       CLOUDY    38  30  73 NW17      29.82R
CEDAR ISLAND   NOT AVBL
JACKSONVILLE   CLOUDY    39  28  64 NW12      29.84R
PINEY ISLAND     N/A    N/A N/A N/A MISG      29.81R
WILMINGTON     PTCLDY    42  28  57 NW12      29.84R


$$

NCZ011>013-027>030-043-044-078>080-089-090>093-098-272300-
COASTAL PLAIN

CITY           SKY/WX    TMP DP  RH WIND       PRES   REMARKS
AHOSKIE        CLOUDY    34  28  77 N6        29.84R
CLINTON        CLEAR     42  26  51 NW5       29.85R
ELIZABETHTOWN  CLEAR     44  22  41 NW6       29.85R
GOLDSBORO      PTCLDY    40  34  80 CALM      29.83R
GREENVILLE     MOCLDY    37  28  70 NW7       29.86R
HAVELOCK       CLOUDY    39  27  62 NW15      29.84R
KENANSVILLE    PTCLDY    40  26  58 W6        29.86R
KINSTON        PTCLDY    39  28  65 N7        29.85R
NEW BERN       CLOUDY    40  27  59 NW10      29.84R
RICHLANDS      CLOUDY    39  27  60 NW3       29.85R
ROCKY MOUNT    CLEAR     40  26  57 NW3       29.83R
WASHINGTON     CLOUDY    36  29  75 NW7       29.83R
WHITEVILLE     CLEAR     45  23  41 W7        29.84R

$$

AMZ130-135-150-152-154-156-158-170-250-252-270-ANZ085-086-088-633-658-670-272300-
MARINE OBSERVATIONS

STATION/POSITION TIME  TEMP    WIND        PRES    WAVE   SWELL
                       AIR SEA DIR/SP/G            HT/PER HT/PER
                 (UTC) (F)     (DEG/KT/KT) (MB)    (FT/S) (FT/S)
CHESAPEAKE LIGHT 2200   36     340/ 23/ 24 1008.7
64 E VA BEACH    2200   38 52  330/ 23/ 29 1006.1   14/13  13/13
DUCK             2200   36 43  320/ 11/ 13 1007.8
2 E DUCK         2200      44                N/A     9/13   7/13
10 NE DUCK       2200      46                N/A    11/13   8/13
OREGON INLET     2200   35 44  300/ 11/ 14 1008.5
13E OREGON INLT  2200      47                N/A    11/13   8/13
HATTERAS CG      2200   36 48  340/ 17/ 19 1009.1
DIAMOND BUOY     2200   39 69  330/ 17/ 23 1007.8   11/12  10/12
17 S OCRACOKE    NOT AVBL
CAPE LOOKOUT     2200   38     320/ 15/ 19 1009.4
BEAUFORT LAB     2200   38 49  320/  7/ 14 1008.8
27 SE WRIGHTSVLE NOT AVBL
5 SE WRIGHTSVLE  2200   43 53  310/ 12/ 14 1010.4
225 S CAPE HAT   2109   58 71  290/ 25/ 33 1004.8   13/ 9
41 SE CHARLESTON 2200   50 68  290/ 19/ 27 1010.7    4/ 4   2/ 7

$$


USA.gov is the U.S. government's official web portal to all federal, state and local government web resources and services.